Lid_Strength_Index
3 3 3 3 3 4 8 12 17 8 8 15 15 20 14 10 12 11 13 13 14 15 15 15 15 15 13 10 11 13 12 13 16 15 10 11 11 15 13 17 19 20 18 18
3 3 3 3 3 4 10 14 14 9 9 20 18 16 14 12 14 13 13 14 13 13 15 17 15 14 10 10 12 12 11 16 19 17 15 13 14 13 13 12 14 18 21 19
3 3 3 3 3 3 9 14 17 15 13 14 15 15 15 16 12 13 13 14 13 15 15 14 16 14 11 11 11 8 10 14 16 20 18 15 15 14 14 14 17 16 16 16
3 3 3 3 3 3 9 14 16 13 19 18 14 13 13 15 15 12 12 14 14 15 19 16 16 14 14 12 10 12 13 17 14 14 13 13 14 15 15 16 15 18 16 16
3 3 4 3 3 4 11 12 16 14 15 14 13 13 16 15 14 14 14 15 14 14 16 15 17 14 15 15 13 14 13 19 15 20 14 14 15 14 13 13 13 13 14 15
4 3 4 3 3 6 12 11 11 12 14 14 15 16 14 14 12 12 12 13 15 15 14 13 13 13 13 13 14 15 16 19 20 23 15 15 19 14 13 13 12 13 16 13
4 3 3 3 3 5 11 10 11 15 18 15 14 12 12 13 12 14 12 13 14 13 11 12 13 14 14 13 13 13 16 16 20 24 18 27 15 11 10 12 12 12 11 11
3 3 3 3 4 3 9 9 11 15 19 14 13 12 12 12 11 12 13 12 11 11 13 18 22 22 19 20 14 14 13 16 24 25 23 17 13 11 11 12 13 11 11 10
3 4 3 3 3 3 7 9 9 12 15 16 11 13 12 15 16 15 13 11 11 12 16 20 27 27 22 19 16 13 14 14 19 27 26 26 14 11 9 9 15 10 9 10
3 3 3 3 3 3 5 9 8 11 16 13 12 14 14 12 14 16 13 13 13 13 22 28 26 23 16 19 18 18 19 23 23 28 25 17 12 10 9 18 15 9 9 9
3 3 3 3 3 3 6 9 7 10 15 14 11 10 12 13 13 16 14 15 15 18 22 22 23 23 18 17 15 16 17 22 23 23 28 24 10 11 13 11 10 9 9 9
2 3 3 3 3 3 5 10 7 7 11 13 10 9 9 9 10 13 13 14 14 14 19 21 21 19 20 17 21 15 18 16 19 17 17 12 11 11 9 9 9 9 9 8
3 3 3 3 3 3 6 10 8 8 11 12 12 12 9 8 8 8 14 14 11 12 13 17 19 19 17 20 18 16 15 14 16 15 13 12 11 10 9 8 8 7 7 7
2 3 3 3 2 3 6 9 8 9 12 17 15 9 11 8 8 8 9 10 11 11 12 16 21 19 15 18 16 17 15 14 15 15 13 12 11 9 8 7 6 7 7 7
2 3 3 3 2 3 6 8 8 8 11 16 16 12 10 9 9 9 9 10 12 13 15 14 17 16 17 18 16 17 14 14 16 17 12 12 11 8 6 7 7 7 8 7
2 2 3 3 3 4 7 11 8 7 9 15 20 14 12 10 10 10 10 10 13 14 13 14 13 13 16 23 18 14 13 12 11 12 10 10 8 8 6 8 7 7 7 7
2 2 2 3 3 5 10 12 10 6 7 14 18 17 13 10 11 12 12 11 14 14 14 15 15 14 16 20 18 14 12 11 10 9 10 10 9 9 7 7 7 6 7 7
2 2 2 3 4 5 9 8 5 6 9 12 19 18 15 10 16 16 12 14 14 14 15 15 16 15 18 18 14 13 12 11 10 10 9 9 8 8 8 7 7 8 9 7
2 2 2 5 7 10 8 4 5 6 10 16 16 17 18 11 14 14 14 14 16 14 15 16 16 17 17 15 14 13 12 11 10 9 9 9 9 9 8 8 8 9 8 7
2 4 9 12 9 4 5 8 10 10 12 13 16 13 14 11 14 15 15 16 17 18 15 15 18 16 13 13 12 11 11 10 9 10 11 10 10 9 9 9 8 7 8 7
7 9 11 7 4 8 11 14 15 14 16 15 14 14 13 11 14 15 15 15 15 18 16 16 16 16 13 11 11 10 10 9 8 8 9 9 8 9 9 9 9 7 7 7
7 7 6 7 10 12 16 17 15 16 17 14 14 14 12 11 10 13 13 14 14 17 14 16 17 14 10 9 10 10 9 8 8 8 8 8 8 8 8 9 9 8 7 7
6 8 10 12 12 17 19 22 18 18 15 13 12 14 13 11 10 13 13 16 16 13 17 16 15 10 9 9 9 8 8 7 8 8 8 8 8 8 8 9 9 9 8 7
10 12 16 15 17 17 16 16 15 13 12 12 12 13 13 13 14 13 16 14 14 19 20 16 11 9 8 7 7 7 7 7 7 7 8 9 9 9 9 10 10 11 10 9
11 12 17 16 14 15 14 13 12 11 10 11 12 12 12 13 14 14 14 16 18 16 17 12 10 9 7 8 8 8 8 8 8 8 9 11 9 9 10 10 10 10 10 7
10 11 14 14 14 17 15 12 10 9 10 10 11 13 15 15 14 15 17 16 17 14 12 11 10 9 9 8 8 8 7 8 10 10 9 9 11 12 11 10 10 10 9 7
11 15 14 13 13 14 12 10 9 8 10 13 11 15 14 14 15 15 14 15 13 12 12 11 9 9 9 9 9 9 9 9 10 10 10 10 9 10 9 9 8 9 8 7